This demonstration page uses our WeatherBlox Daily Observations layout. Learn more.

Left ArrowRight Arrow

41.86663, -103.66717

Hourly Observations for September 12, 2020

Temp ( °F °C ) Dew Point ( °F °C ) Humidity (%) Winds ( mph kmh ) Pressure ( in mb ) Visibility ( mi km ) Precip ( " mm )
12:53 am 00:53 Clear 47 8.3 45 7.2 93 93 NW 3 6 29.97 1015 10 16.0934 0 0
1:53 am 01:53 Clear 46 7.8 44 6.7 93 93 NNW 6 9 29.97 1015 10 16.0934 0 0
2:53 am 02:53 Clear 46 7.8 44 6.7 93 93 NNW 6 9 29.96 1014 10 16.0934 0 0
3:53 am 03:53 Clear 44 6.7 43 6.1 96 96 W 8 13 29.98 1015 10 16.0934 0 0
4:53 am 04:53 Clear 45 7.2 43 6.1 93 93 WNW 7 11 29.97 1015 10 16.0934 0 0
5:53 am 05:53 Clear 44 6.7 42 5.6 93 93 W 3 6 29.99 1016 10 16.0934 0 0
6:53 am 06:53 Sunny 44 6.7 42 5.6 93 93 NNW 7 11 30.01 1016 10 16.0934 0 0
7:53 am 07:53 Sunny 49 9.4 45 7.2 86 86 NNW 7 11 30.05 1018 10 16.0934 0 0
8:53 am 08:53 Sunny 54 12.2 45 7.2 72 72 WNW 7 11 30.05 1018 10 16.0934 0 0
9:53 am 09:53 Sunny 60 15.6 45 7.2 58 58 WNW 8 13 30.04 1017 10 16.0934 0 0
10:53 am 10:53 Sunny 67 19.4 45 7.2 45 45 W 8 13 30.01 1016 10 16.0934 0 0
11:53 am 11:53 Sunny 72 22.2 43 6.1 35 35 W 9 15 29.99 1016 10 16.0934 0 0
12:53 pm 12:53 Sunny 76 24.4 42 5.6 30 30 WNW 13 20 29.97 1015 10 16.0934 0 0
1:53 pm 13:53 Sunny 80 26.7 35 1.7 20 20 NW 17 28 29.96 1015 10 16.0934 0 0
2:53 pm 14:53 Sunny 81 27.2 33 0.6 18 18 NW 14 22 29.95 1014 10 16.0934 0 0
3:53 pm 15:53 Sunny 82 27.8 34 1.1 18 18 NNW 16 26 29.96 1014 10 16.0934 0 0
4:53 pm 16:53 Sunny 82 27.8 33 0.6 17 17 NW 12 19 29.96 1015 10 16.0934 0 0
5:53 pm 17:53 Sunny 80 26.7 36 2.2 20 20 NNW 8 13 29.98 1015 10 16.0934 0 0
6:53 pm 18:53 Sunny 73 22.8 41 5 32 32 N 3 6 30.01 1016 10 16.0934 0 0
7:53 pm 19:53 Clear 61 16.1 45 7.2 56 56 NNE 8 13 30.05 1018 10 16.0934 0 0
8:53 pm 20:53 Clear 59 15 43 6.1 56 56 E 3 6 30.06 1018 10 16.0934 0 0
9:53 pm 21:53 Clear 55 12.8 44 6.7 67 67 ESE 5 7 30.06 1018 10 16.0934 0 0
10:53 pm 22:53 Clear 52 11.1 42 5.6 69 69 SSW 7 11 30.06 1018 10 16.0934 0 0
11:53 pm 23:53 Clear 49 9.4 42 5.6 77 77 ENE 6 9 30.06 1018 10 16.0934 0 0

Powered by AerisWeather